Flag Weather past 2 weeks in Brantford, Ontario, Canada

Now
41 °F

Light rain. Fog.


Feels Like: 34 °F
Forecast: 37 / 42 °F
Wind: 13 mph from Southwest

Location: Hamilton Airport

Current Time: Nov 22, 2014 at 9:23:43 PM

Latest Report: Nov 22, 2014 at 9:00 PM


Visibility: 4 mi

Pressure: 29.97 "Hg

Humidity: 100%

Dew point: 41 °F

Location of BrantfordLocation

Historic Weather in Brantford — Graph

°F

Brantford temperature yesterday

Maximum temperature yesterday: 25 °F (at 1:00 PM)
Minimum temperature yesterday: 10 °F (at 7:00 AM)
Average temperature yesterday: 17 °F

Past Weeks' High & Low Weather Summary

 TemperatureHumidityPressure
High63 °F (Nov 11, 3:00 PM)100% (Nov 9, 7:00 AM)30.47 "Hg (Nov 9, 7:00 AM)
Low9 °F (Nov 19, 6:00 AM)45% (Nov 11, 3:00 PM)29.56 "Hg (Nov 17, 1:52 PM)
Average30 °F76%29.99 "Hg
* Reported Nov 7 8:00 PM — Nov 22 8:00 PM, Brantford, Weather by CustomWeather, © 2014

Note: Actual official high and low records may vary slightly from our data, if they occured in-between our weather recording intervals... More about our weather records

Advertising

Brantford weather history for previous 24 hours

 ConditionsComfort  
Time TempWeatherWind HumidityBarometerVisibility
8:00 PM
Nov 22
41 °FLight rain. Fog.17 mph93%29.97 "Hg5 mi
7:00 PM41 °FFog.17 mph93%29.97 "Hg6 mi
6:00 PM41 °FFog.14 mph93%29.97 "Hg5 mi
5:00 PM41 °FFog.15 mph87%29.96 "Hg4 mi
4:00 PM39 °FFog.16 mph93%29.97 "Hg3 mi
3:00 PM37 °FFog.14 mph93%29.97 "Hg1 mi
2:00 PM36 °FDrizzle. Fog.16 mph93%29.99 "Hg1 mi
1:46 PM36 °FDrizzle. Fog.18 mph93%30.00 "Hg1 mi
1:00 PM36 °FDrizzle. Fog.21 mph93%30.01 "Hg2 mi
12:45 PM36 °FDrizzle. Fog.24 mph93%30.03 "Hg2 mi
12:00 PM34 °FLight rain. Mostly cloudy.20 mph93%30.05 "Hg10 mi
11:00 AM34 °FLight rain. Mostly cloudy.22 mph81%30.09 "Hg12 mi
10:00 AM34 °FPartly sunny.24 mph65%30.11 "Hg15 mi
9:00 AM32 °FOvercast.21 mph69%30.15 "Hg15 mi
8:00 AM30 °FOvercast.16 mph69%30.19 "Hg15 mi
7:00 AM30 °FMostly cloudy.16 mph69%30.20 "Hg15 mi
6:00 AM28 °FPassing clouds.20 mph69%30.22 "Hg15 mi
5:00 AM28 °FOvercast.18 mph74%30.25 "Hg15 mi
4:00 AM28 °FOvercast.17 mph74%30.27 "Hg15 mi
3:00 AM27 °FOvercast.16 mph74%30.31 "Hg15 mi
2:00 AM18 °FMostly cloudy.8 mph79%30.33 "Hg15 mi
1:00 AM18 °FMostly cloudy.6 mph73%30.36 "Hg15 mi
12:00 AM16 °FMostly cloudy.8 mph67%30.38 "Hg15 mi
11:00 PM
Nov 21
16 °FPassing clouds.8 mph67%30.40 "Hg15 mi
10:00 PM14 °FPassing clouds.9 mph67%30.42 "Hg15 mi
9:00 PM14 °FPassing clouds.7 mph62%30.44 "Hg15 mi
Weather by CustomWeather, © 2014

See weather overviewHow to use our weather pages